This demonstration page uses our WeatherBlox Daily Observations layout. Learn more.

38.89511, -77.03637

Hourly Observations for March 11, 2015

Temp ( °F °C ) Dew Point ( °F °C ) Humidity (%) Winds ( mph kmh ) Pressure ( in mb ) Visibility ( mi km ) Precip ( " mm )
12:21 am 00:21 Cloudy with Light Rain 46 8 43 6 87 87 S 7 11 30 1016 2 3.21868 0.01 0.254
12:26 am 00:26 Cloudy with Light Rain 46 8 43 6 87 87 SSW 7 11 30 1016 2 3.21868 0 0
12:41 am 00:41 Cloudy with Light Rain 48 9 45 7 87 87 S 5 7 30 1016 1.75 2.816345 0.02 0.508
12:52 am 00:52 Cloudy with Mist and Fog 48 8.9 45 7.2 89 89 S 5 7 29.98 1015 1.75 2.816345 0.02 0.508
1:05 am 01:05 Cloudy with Fog 46 8 45 7 93 93 Calm 30 1016 2 3.21868 0 0
1:39 am 01:39 Cloudy with Fog 46 8 43 6 87 87 Calm 30 1016 3 4.82802 0 0
1:52 am 01:52 Cloudy with Mist and Fog 47 8.3 44 6.7 90 90 Calm 29.98 1015 3 4.82802 0 0
2:20 am 02:20 Cloudy with Light Rain 46 8 43 6 87 87 Calm 30 1016 3 4.82802 0 0
2:52 am 02:52 Cloudy with Mist and Fog 48 8.9 44 6.7 86 86 NNW 3 6 29.98 1015 4 6.43736 0 0.0254
3:21 am 03:21 Cloudy with Mist and Fog 48 9 45 7 87 87 NNW 5 7 30 1016 5 8.0467 0 0
3:52 am 03:52 Cloudy with Mist and Fog 49 9.4 45 7.2 86 86 NW 5 7 29.99 1016 6 9.65604 0 0
4:52 am 04:52 Mostly Cloudy with Mist and Fog 48 8.9 44 6.7 86 86 Calm 29.98 1015 4 6.43736 0 0
4:55 am 04:55 Mostly Cloudy with Mist and Fog 48 9 45 7 87 87 Calm 29.97 1015 1.5 2.41401 0 0
5:03 am 05:03 Cloudy with Fog 46 8 45 7 93 93 Calm 29.97 1015 5 8.0467 0 0
5:52 am 05:52 Cloudy with Light Rain 46 7.8 43 6.1 89 89 Calm 30.01 1016 5 8.0467 0 0.0254
6:52 am 06:52 Cloudy with Mist and Fog 48 8.9 44 6.7 86 86 NE 5 7 30.03 1017 5 8.0467 0 0.0254
7:52 am 07:52 Cloudy with Haze 49 9.4 44 6.7 83 83 NNE 5 7 30.04 1017 6 9.65604 0 0
8:52 am 08:52 Cloudy with Haze 49 9.4 44 6.7 83 83 N 6 9 30.06 1018 5 8.0467 0 0
9:52 am 09:52 Cloudy 53 11.7 46 7.8 77 77 NNW 8 13 30.09 1019 10 16.0934 0 0
10:52 am 10:52 Cloudy 54 12.2 46 7.8 75 75 NNW 8 13 30.09 1019 10 16.0934 0 0
11:41 am 11:41 Cloudy with Light Rain 55 13 46 8 72 72 N 6 9 30.09 1019 10 16.0934 0 0.0254
11:52 am 11:52 Cloudy 57 13.9 47 8.3 69 69 VRB 7 11 30.1 1019 10 16.0934 0 0.0254
12:52 pm 12:52 Cloudy 58 14.4 48 8.9 70 70 N 7 11 30.09 1019 10 16.0934 0 0.0254
1:52 pm 13:52 Cloudy 63 17.2 48 8.9 58 58 NNW 14 22 30.09 1019 10 16.0934 0 0
2:52 pm 14:52 Cloudy 64 17.8 46 7.8 52 52 NW 10 17 30.08 1019 10 16.0934 0 0
3:52 pm 15:52 Cloudy 66 18.9 42 5.6 42 42 W 7 11 30.06 1018 10 16.0934 0 0
4:52 pm 16:52 Sunny 66 18.9 42 5.6 42 42 VRB 7 11 30.08 1019 10 16.0934 0 0
5:52 pm 17:52 Mostly Cloudy 66 18.9 41 5 40 40 NW 7 11 30.09 1019 10 16.0934 0 0
6:52 pm 18:52 Mostly Cloudy 65 18.3 42 5.6 43 43 WNW 3 6 30.1 1019 10 16.0934 0 0
7:52 pm 19:52 Partly Cloudy 57 13.9 41 5 55 55 S 3 6 30.11 1020 10 16.0934 0 0
8:52 pm 20:52 Clear 54 12.2 46 7.8 75 75 S 6 9 30.15 1021 10 16.0934 0 0
9:52 pm 21:52 Clear 54 12.2 43 6.1 67 67 NNW 7 11 30.17 1022 10 16.0934 0 0
10:52 pm 22:52 Clear 55 12.8 37 2.8 51 51 NNW 9 15 30.23 1024 10 16.0934 0 0
11:52 pm 23:52 Clear 54 12.2 30 -1.1 40 40 NW 15 24 30.25 1024 10 16.0934 0 0

Powered by AerisWeather